Other Surface Observations
Issued by NWS

Home | Current Version | Previous Version | Text Only | Print | Product List | Glossary On
Versions: 1 2 3 4 5 6 7 8 9 10 11 12 13 14 15 16 17 18 19 20 21 22 23 24 25 26 27 28 29 30 31 32 33 34 35 36 37 38 39 40 41 42 43 44 45 46 47 48 49 50
307
SXUS52 KTAE 172318
OSOTAE
OSOTAE
North Florida/South Alabama/Southwest Georgia Weather Roundup
National Weather Service Tallahassee Florida
600 PM EST FRI NOV 17 2017

Note: "fair" indicates few or no clouds below 12,000 feet with no
significant weather and/or obstructions to visibility.

!FLZ017-115-028-034-025-180000
...North Florida...

CITY           SKY/WX    TMP DP  RH WIND       PRES   REMARKS
TALLAHASSEE    PTCLDY    66  49  54 CALM      30.07S
APALACHICOLA   CLEAR     64  59  83 SE3       30.07S
PERRY            N/A     60  48  64 CALM      30.09
CROSS CITY     CLEAR     60  50  70 CALM      30.11S
JACKSONVILLE   MOCLDY    64  58  80 N8        30.10R
$$

!FLZ112-006-005-002-011-180000
...Florida Panhandle...

CITY           SKY/WX    TMP DP  RH WIND       PRES   REMARKS
MARIANNA       CLEAR     67  43  41 SE5       30.06S
BONIFAY        NOT AVBL
PANAMA CITY NW FAIR      65  55  70 SW5       30.05S
TYNDALL AFB    CLEAR     64  55  73 S3        30.07S
TYND DRONE APT FAIR      62  56  81 S3        30.07S
DE FUNIAK SPR  FAIR      64  52  64 CALM      30.07R
EGLIN AFB      PTCLDY    66  56  69 SW3       30.06S
DESTIN         CLEAR     70  55  59 CALM      30.06S
HURLBURT       CLEAR     67  57  71 SW3       30.05S
CRESTVIEW      MOCLDY    67  56  67 S3        30.08R
PENSACOLA      CLEAR     67  58  72 S6        30.06R
$$

!ALZ063-066-180000
...South Alabama...

CITY           SKY/WX    TMP DP  RH WIND       PRES   REMARKS
DOTHAN         CLEAR     61  45  55 CALM      30.10S
OZARK CAIRNS   CLEAR     64  45  50 CALM      30.07R
FT RUCKER HELI CLEAR     59  51  75 CALM      30.06S
RUCKER HELI 3    N/A     62  49  61 CALM      30.06S
RUCKER HELI 2  FAIR      59  51  73 CALM      30.06S
FLORALA APT    CLEAR     61  53  75 CALM      30.08S
ANDALUSIA      CLEAR     64  53  67 CALM      30.06R
TROY           CLEAR     58  50  75 CALM      30.07R
EUFALA         FAIR      53  46  77 CALM      30.07R
MOBILE         PTCLDY    67  57  70 S8        30.05S
$$

!GAZ120>161-180000
...Southwest and South Central Georgia...

CITY           SKY/WX    TMP DP  RH WIND       PRES   REMARKS
THOMASVILLE    FAIR      63  46  55 CALM      30.09S
BAINBRIDGE     CLEAR     64  50  59 CALM      30.08S
MOODY AFB      CLEAR     60  49  68 CALM      30.08S
VALDOSTA       CLEAR     59  48  67 CALM      30.09S
MOULTRIE       CLEAR     63  48  59 CALM      30.09F
BLAKELY        CLEAR     61  50  67 CALM      30.08F
ALBANY         PTCLDY    64  44  48 E7        30.10R
TIFTON         FAIR      61  48  62 CALM      30.09S
FITZGERALD     FAIR      57  49  75 CALM      30.12S
CORDELE        FAIR      62  46  55 CALM      30.10S
AMERICUS       FAIR      55  43  62 CALM      30.10S
HOMERVILLE     MOCLDY    63  52  67 E3        30.10S
$$

!GMZ750-755-770-775-180000
...Coastal and Buoy Obs...

STATION/POSITION TIME  TEMP    WIND        PRES    VSBY  WAVE
                       AIR SEA DIR/SP/G                  HT/PER
                 (UTC) (F)     (DEG/KT/KT) (MB)    (MI)  (FT/S)
KEATON BEACH     2300   64     320/  4/  5 1018.4R
CEDAR KEY        2300   65     320/  5/  6 1018.4R
C TOWER          2300   67     130/  8/  9 1019.0R
APALACHICOLA BUO 2250   69 76   40/  6/  8 1018.1R         1/ 4
PANAMA CITY BUOY 2250   70 77   40/  4/  6 1018.2R         1/ 4
MOBILE BUOY      2300   74 79  140/  4/  6 1017.6
ORANGE BCH AL BU NOT AVBL
$$




USA.gov is the U.S. government's official web portal to all federal, state and local government web resources and services.